Weather History for Panama City, FL

Change the Weather History Date:

Tuesday, April 1, 2014

  Actual Average Record
Temperature  
Mean Temperature 60 °F -  
Max Temperature 75 °F - 84 °F (2012)
Min Temperature 44 °F - 44 °F (2014)
Degree Days  
Heating Degree Days 5    
Cooling Degree Days 0    
Growing Degree Days 8 (Base 50)    
Moisture  
Dew Point 47 °F    
Average Humidity 63    
Maximum Humidity 93    
Minimum Humidity 33    
Precipitation  
Precipitation 0.00 in - 0.00 in (2015)
Month to date precipitation 0.00  
Year to date precipitation 18.71  
Sea Level Pressure  
Sea Level Pressure 30.16 in    
Wind  
Wind Speed 1 mph (SSE)    
Max Wind Speed 25 mph    
Max Gust Speed 35 mph    
Visibility 6 miles    
Events Fog    
T = Trace of Precipitation, MM = Missing Value Source: NWS Daily Summary

Daily Weather History Graph

Daily Weather History Graph

Search for Another Location

Airport:

Trip Planner

Search our weather history database for the weather conditions in past years. The results will help you decide how hot, cold, wet, or windy it might be!

Date:

Astronomy

Apr. 01, 2014 Rise Set
Actual Time 7:32 AM EDT 8:02 PM EDT
Civil Twilight 7:08 AM EDT 8:26 PM EDT
Nautical Twilight 6:39 AM EDT 8:54 PM EDT
Astronomical Twilight 6:11 AM EDT 9:23 PM EDT
Moon 8:42 AM EDT (4/1) 10:13 PM EDT (4/1)
Length of Visible Light 13h 18m
Length of Day
12h 29m
Waxing Crescent, 4% of the Moon is Illuminated
Apr 1
Waxing Crescent
Apr 7
First Quarter
Apr 15
Full
Apr 22
Last Quarter
Apr 29
New

Hourly Weather History & Observations

Time (EDT) Temp. Dew Point Humidity Pressure Visibility Wind Dir Wind Speed Gust Speed Precip Events Conditions
12:53 AM 48.9 °F 46.0 °F 90% 30.17 in 8.0 mi Calm Calm - N/A   Clear
1:53 AM 46.9 °F 44.1 °F 90% 30.17 in 9.0 mi Calm Calm - N/A   Clear
2:53 AM 46.0 °F 43.0 °F 89% 30.16 in 9.0 mi Calm Calm - N/A   Clear
3:01 AM 44.6 °F 42.8 °F 93% 30.12 in 9.0 mi Calm Calm - N/A   Scattered Clouds
3:10 AM 46.4 °F 42.8 °F 87% 30.12 in 9.0 mi Calm Calm - N/A   Mostly Cloudy
3:49 AM 46.4 °F 42.8 °F 87% 30.12 in 1.2 mi Calm Calm - N/A   Overcast
3:51 AM 46.4 °F 42.8 °F 87% 30.12 in 0.8 mi Calm Calm - N/A   Mist
3:53 AM 45.0 °F 42.1 °F 90% 30.15 in 0.5 mi Calm Calm - N/A Fog Fog
4:36 AM 44.6 °F 42.8 °F 93% 30.11 in 2.0 mi Calm Calm - N/A   Mostly Cloudy
4:49 AM 44.6 °F 42.8 °F 93% 30.10 in 0.8 mi Calm Calm - N/A   Mist
4:53 AM 45.0 °F 43.0 °F 93% 30.14 in 0.8 mi Calm Calm - N/A   Mist
5:03 AM 44.6 °F 42.8 °F 93% 30.10 in 1.2 mi Calm Calm - N/A   Overcast
5:26 AM 44.6 °F 41.0 °F 87% 30.10 in 0.8 mi North - - N/A   Mist
5:33 AM 44.6 °F 39.2 °F 81% 30.10 in - Calm Calm - N/A   Unknown
5:44 AM 44.6 °F 42.8 °F 93% 30.11 in 0.5 mi North - - N/A Fog Fog
5:51 AM 44.6 °F 42.8 °F 93% 30.11 in - Calm Calm - N/A   Unknown
5:53 AM 44.1 °F 41.0 °F 89% 30.15 in - Calm Calm - N/A   Unknown
6:02 AM 44.6 °F 42.8 °F 93% 30.12 in 0.5 mi Calm Calm - N/A Fog Fog
6:23 AM 44.6 °F 42.8 °F 93% 30.12 in 0.8 mi Calm Calm - N/A   Mist
6:40 AM 44.6 °F 42.8 °F 93% 30.13 in 0.2 mi Calm Calm - N/A Fog Fog
6:53 AM 44.1 °F 41.0 °F 89% 30.17 in 0.2 mi Calm Calm - N/A Fog Fog
7:53 AM 45.0 °F 42.1 °F 90% 30.20 in 0.5 mi Calm Calm - N/A Fog Fog
8:22 AM 48.2 °F 44.6 °F 87% 30.18 in 3.0 mi Calm Calm - N/A   Partly Cloudy
8:53 AM 51.1 °F 48.0 °F 89% 30.23 in 7.0 mi Calm Calm - N/A   Clear
9:53 AM 57.9 °F 54.0 °F 87% 30.25 in 10.0 mi Calm Calm - N/A   Clear
10:53 AM 66.0 °F 54.0 °F 65% 30.23 in 10.0 mi Calm Calm - N/A   Clear
11:53 AM 70.0 °F 51.1 °F 51% 30.21 in 10.0 mi East 9.2 mph - N/A   Clear
12:09 PM 71.6 °F 48.2 °F 43% 30.17 in 10.0 mi ESE 9.2 mph - N/A   Clear
12:53 PM 71.1 °F 46.0 °F 41% 30.21 in 10.0 mi SE 6.9 mph - N/A   Clear
1:53 PM 73.9 °F 48.0 °F 40% 30.19 in 10.0 mi South 10.4 mph - N/A   Clear
2:53 PM 73.9 °F 42.1 °F 32% 30.18 in 10.0 mi SSE 8.1 mph - N/A   Clear
3:53 PM 73.9 °F 46.9 °F 38% 30.17 in 10.0 mi South 10.4 mph - N/A   Clear
4:53 PM 71.1 °F 48.9 °F 45% 30.17 in 10.0 mi South 10.4 mph - N/A   Clear
5:53 PM 69.1 °F 54.0 °F 58% 30.17 in 10.0 mi South 11.5 mph - N/A   Clear
6:53 PM 66.9 °F 55.9 °F 68% 30.17 in 10.0 mi South 10.4 mph - N/A   Clear
7:53 PM 64.0 °F 57.0 °F 78% 30.17 in 10.0 mi South 4.6 mph - N/A   Clear
8:18 PM 62.6 °F 55.4 °F 77% 30.14 in 10.0 mi South 4.6 mph - N/A   Partly Cloudy
8:53 PM 61.0 °F 55.9 °F 83% 30.17 in 10.0 mi Calm Calm - N/A   Clear
9:53 PM 59.0 °F 55.9 °F 90% 30.18 in 9.0 mi Calm Calm - N/A   Clear
10:53 PM 55.9 °F 53.1 °F 90% 30.18 in 7.0 mi Calm Calm - N/A   Clear
11:53 PM 55.0 °F 52.0 °F 89% 30.17 in 7.0 mi Calm Calm - N/A   Clear